Regional Weather Roundup
Issued by NWS

Home | Current Version | Previous Version | Graphics & Text | Print | Product List | Glossary On
Versions: 1 2 3 4 5 6 7 8 9 10 11 12 13 14 15 16 17 18 19 20 21 22 23 24 25 26 27 28 29 30 31 32 33 34 35 36 37 38 39 40 41 42 43 44 45 46 47 48 49 50
085
ASUS45 KABQ 240901
RWRNM
NEW MEXICO REGIONAL WEATHER ROUNDUP
NATIONAL WEATHER SERVICE ALBUQUERQUE NM
300 AM MDT TUE APR 24 2018

NOTE: "FAIR" MEANS FEW OR NO CLOUDS BELOW 12,000 FEET AGL WITH NO
       SIGNIFICANT WEATHER OR OBSTRUCTIONS TO VISION.

      THIS PRODUCT IS RELEASED AS TWO VERSIONS.  ONE VERSION NEAR
      THE TOP OF THE HOUR CONTAINING PRELIMINARY DATA FROM ALBUQUERQUE
      AND OTHER STATIONS.  A FINAL VERSION WITH ADDITIONAL DATA IS
      ISSUED ABOUT 10 MINUTES AFTER THE HOUR.

NMZ501-503-504-510>518-241000-
NORTHWEST PLATEAU/NORTHCENTRAL MOUNTAINS

CITY           SKY/WX    TMP DP  RH WIND       PRES   REMARKS
FARMINGTON     FAIR      48  15  26 SE5       30.07R
LOS ALAMOS     FAIR      59  11  15 CALM      30.17S
SANTA FE       FAIR      43  17  35 N7        30.11S
TAOS           FAIR      36  13  38 N6        30.19S WCI  31
ANGEL FIRE     FAIR      23  16  77 CALM      30.24S

$$
NMZ402-403-502-505>509-241000-
WESTCENTRAL MOUNTAINS/SOUTHWEST MOUNTAINS

CITY           SKY/WX    TMP DP  RH WIND       PRES   REMARKS
GALLUP         FAIR      35   6  29 E6        30.17F WCI  30
GRANTS         FAIR      42   5  21 W5        30.18F
SILVER CITY    FAIR      53  18  26 NW10      30.12S

$$
NMZ407-409-411-412-241000-
SOUTHERN DESERTS

CITY           SKY/WX    TMP DP  RH WIND       PRES   REMARKS
DEMING         FAIR      55  20  25 W10       30.07R
LAS CRUCES     FAIR      58  19  21 NW5       30.06S
ALAMOGORDO     FAIR      61  19  20 CALM      30.04S
T OR C         FAIR      63  17  17 SW6       30.07S

$$
NMZ519>523-241000-
CENTRAL VALLEYS/CENTRAL HIGHLANDS

CITY           SKY/WX    TMP DP  RH WIND       PRES   REMARKS
ALBUQUERQUE    FAIR      54  23  30 SE8       30.08S
DOUBLE EAGLE   FAIR      45  11  25 SW5       30.11S
MORIARTY ARPT  FAIR      41  20  42 CALM      30.13S
CLINES CORNERS FAIR      50  22  33 SW10      30.17S
BELEN          FAIR      53   9  17 W7        30.09R
SOCORRO        FAIR      51  19  28 CALM      30.06S

$$
NMZ524>526-539-540-241000-
SOUTHCENTRAL MOUNTAINS

CITY           SKY/WX    TMP DP  RH WIND       PRES   REMARKS
RUIDOSO        NOT AVBL

$$
NMZ527>531-241000-
NORTHEAST HIGHLANDS/NORTHEAST PLAINS

CITY           SKY/WX    TMP DP  RH WIND       PRES   REMARKS
LAS VEGAS      FAIR      43  19  38 NE9       30.13F
RATON          FAIR      39  31  72 NE5       30.10F
CLAYTON        FAIR      46  40  79 SW8       30.04F

$$
NMZ532>537-241000-
EASTCENTRAL PLAINS

CITY           SKY/WX    TMP DP  RH WIND       PRES   REMARKS
SANTA ROSA     FAIR      53  29  39 CALM      30.03S
TUCUMCARI      FAIR      58  37  45 S9        29.99S
CANNON AFB     NOT AVBL
CLOVIS AIRPORT FAIR      49  35  58 SE8       30.06F

$$
NMZ028-029-538-241000-
SOUTHEAST PLAINS

CITY           SKY/WX    TMP DP  RH WIND       PRES   REMARKS
ROSWELL        FAIR      55  28  35 SW7       29.99F
ARTESIA        FAIR      59  27  29 SW7       30.00S
CARLSBAD       FAIR      58  31  35 SE6       29.98S
HOBBS          FAIR      57  37  47 SW8       30.03F


$$




USA.gov is the U.S. government's official web portal to all federal, state and local government web resources and services.